Location: B�rgermoos
(47.6500°N, 9.0667°E)
Time: 18:03:40
(UTC+00:00)

ISS - Visible Passes

Search period start: 23 June 2021 00:00
Search period end: 03 July 2021 00:00
Orbit: 417 x 422 km, 51.6° (Epoch: 22 June)

Date Brightness Start Highest point End Pass type
(mag) Time Alt. Az. Time Alt. Az. Time Alt. Az.
29 Jun -1.9 02:15:15 11° S 02:17:41 21° SE 02:20:18 10° E visible
30 Jun -1.5 01:29:33 13° SSE 01:30:26 14° SE 01:32:13 10° ESE visible
01 Jul -3.3 02:16:44 15° SW 02:19:21 48° SSE 02:22:38 10° ENE visible
02 Jul -2.7 01:30:56 25° S 01:32:00 32° SE 01:35:03 10° E visible
